Wetbulb
54.04 53.94 53.61 53.00 52.92 52.45 50.97 50.50 46.96 44.26 43.35 42.61 41.50 40.07 38.21 36.50 35.83 34.54 33.62 32.93 32.88 33.05
54.72 53.99 53.94 53.50 54.02 53.32 51.75 47.79 45.15 43.30 42.06 40.81 39.72 39.00 37.26 35.07 33.99 34.10 32.89 32.35 32.23 32.21
54.46 53.66 54.33 53.90 52.29 51.12 48.73 45.87 43.72 42.27 40.68 39.57 39.08 37.99 36.41 34.06 33.89 33.39 32.26 32.54 32.04 31.69
54.26 53.94 53.76 51.88 50.71 48.44 45.89 44.99 43.87 43.00 39.95 39.54 38.14 36.99 34.78 33.63 33.82 32.97 31.71 31.66 31.97 31.97
53.91 53.35 50.97 50.03 48.44 46.74 45.29 45.13 44.20 41.96 40.41 39.31 37.74 35.69 34.57 33.56 33.50 32.31 31.45 31.62 31.36 31.38
53.33 51.33 49.33 48.07 46.52 46.25 45.15 43.70 42.08 41.47 38.75 38.06 36.76 35.06 34.41 34.24 33.44 32.28 31.78 31.54 31.00 30.98
51.09 49.62 48.45 46.45 45.38 44.98 43.36 41.63 40.90 39.07 38.26 37.65 36.04 35.41 35.16 34.35 32.13 31.75 32.27 32.75 31.91 31.19
50.12 48.79 46.89 44.93 43.45 42.29 41.73 41.29 39.57 37.63 36.83 34.46 32.74 32.44 29.25 29.43 29.43 29.91 30.47 31.61 32.51 31.82
49.91 47.73 44.87 42.51 40.70 40.22 39.75 38.09 37.38 36.21 35.69 30.59 31.12 31.63 31.07 27.93 26.79 29.41 30.14 29.29 30.08 31.05
47.78 44.55 42.84 41.89 40.50 38.51 36.54 36.36 35.25 34.78 30.96 28.41 28.32 31.18 30.41 30.08 26.53 27.38 28.52 28.65 28.96 30.75
45.35 43.43 42.34 40.46 38.44 36.40 35.88 35.08 34.08 33.28 30.64 28.33 29.00 30.63 29.72 29.50 25.80 26.28 27.94 28.90 28.58 26.49
43.76 42.25 41.19 38.72 37.01 36.41 35.42 33.81 33.17 33.52 30.19 27.47 26.56 29.99 29.28 27.56 25.70 27.34 27.22 28.40 27.82 25.98
42.80 41.81 39.49 38.00 36.81 36.26 35.65 34.85 34.79 33.12 29.85 29.16 26.05 29.85 29.58 27.19 25.44 23.83 24.91 25.65 26.70 27.77
41.70 40.32 38.76 37.48 36.12 35.93 34.18 33.65 31.96 30.45 29.32 27.09 26.99 27.43 30.25 29.80 25.37 24.47 24.24 24.48 24.11 25.50
MSLP
1022.46 1023.19 1023.72 1024.36 1025.11 1025.81 1026.61 1027.37 1028.32 1029.00 1029.54 1029.99 1030.39 1030.79 1031.23 1031.63 1031.84 1032.04 1032.42 1032.67 1032.70 1032.75
1022.11 1022.73 1023.37 1024.02 1024.55 1025.16 1026.11 1027.41 1028.25 1028.84 1029.57 1030.18 1030.50 1030.91 1031.43 1031.93 1032.11 1032.27 1032.50 1032.75 1032.73 1032.85
1021.71 1022.40 1023.11 1023.75 1024.48 1025.28 1026.38 1027.39 1028.23 1029.00 1029.64 1030.21 1030.63 1031.07 1031.67 1032.06 1032.10 1032.38 1032.60 1032.75 1032.84 1032.89
1021.67 1022.31 1022.91 1023.73 1024.54 1025.31 1026.47 1027.35 1028.11 1028.80 1029.56 1030.24 1030.78 1031.21 1031.76 1032.11 1032.22 1032.51 1032.72 1032.87 1032.91 1033.00
1021.43 1022.22 1022.97 1023.79 1024.66 1025.44 1026.42 1027.35 1028.06 1028.71 1029.47 1030.18 1030.83 1031.42 1031.90 1032.17 1032.34 1032.60 1032.86 1033.03 1033.04 1033.10
1021.39 1022.15 1023.01 1023.91 1024.85 1025.56 1026.41 1027.34 1028.16 1028.73 1029.59 1030.30 1030.99 1031.53 1031.89 1032.06 1032.23 1032.51 1032.85 1032.98 1033.11 1033.28
1021.29 1022.23 1023.23 1024.20 1024.99 1025.72 1026.53 1027.36 1028.20 1028.99 1029.69 1030.40 1031.02 1031.50 1031.83 1032.01 1032.26 1032.44 1032.73 1032.69 1032.79 1033.01
1021.19 1022.21 1023.30 1024.35 1025.18 1025.94 1026.66 1027.45 1028.36 1029.19 1029.92 1030.85 1031.42 1031.95 1032.55 1032.65 1032.73 1032.69 1032.58 1032.51 1032.52 1032.80
1021.20 1022.31 1023.44 1024.48 1025.43 1026.16 1026.90 1027.74 1028.57 1029.48 1030.25 1031.15 1031.68 1032.24 1032.50 1032.78 1033.01 1032.97 1032.81 1032.70 1032.65 1032.61
1021.17 1022.39 1023.59 1024.44 1025.47 1026.33 1027.04 1027.88 1028.80 1029.63 1030.47 1031.43 1032.19 1032.33 1032.53 1032.64 1032.99 1033.10 1033.03 1032.66 1032.66 1032.75
1021.23 1022.35 1023.54 1024.40 1025.45 1026.49 1027.24 1027.96 1028.78 1029.72 1030.63 1031.46 1032.14 1032.37 1032.53 1032.59 1032.92 1033.02 1032.84 1032.68 1032.55 1033.43
1021.21 1022.34 1023.30 1024.43 1025.38 1026.35 1027.25 1028.08 1028.85 1029.76 1030.70 1031.31 1032.16 1032.34 1032.54 1032.61 1032.87 1033.07 1033.11 1033.20 1033.33 1033.88
1021.22 1022.26 1023.25 1024.48 1025.41 1026.19 1027.00 1027.89 1028.70 1029.66 1030.56 1031.26 1031.97 1032.28 1032.47 1032.56 1032.86 1033.11 1033.30 1033.68 1033.82 1033.87
1021.52 1022.31 1023.37 1024.53 1025.44 1026.33 1027.17 1027.96 1028.72 1029.60 1030.66 1031.36 1031.72 1032.30 1032.24 1032.31 1032.77 1033.02 1033.33 1033.63 1034.03 1034.02
Wind_Speed
9 7 10 12 10 8 8 8 9 9 8 7 6 6 5 4 4 5 4 5 4 3
7 10 11 11 11 9 10 10 11 10 8 7 6 6 6 4 4 4 4 3 4 3
8 8 11 8 9 13 12 13 12 9 8 7 6 7 7 4 4 5 3 3 4 3
6 7 7 11 12 13 14 13 12 11 8 7 6 6 6 5 5 6 5 4 5 4
8 10 12 12 14 14 14 11 11 10 8 7 7 6 6 5 5 5 5 4 5 4
10 12 13 14 14 13 14 11 11 9 8 8 7 6 6 6 5 4 5 5 3 3
12 13 12 13 13 13 12 12 9 8 8 8 7 5 3 4 4 3 5 5 5 5
13 13 14 13 12 12 11 9 9 10 7 8 7 5 5 5 5 1 1 1 1 5
15 15 14 14 12 11 9 10 10 8 9 8 6 10 9 5 3 4 2 3 3 4
15 15 14 13 12 10 11 10 9 8 11 9 7 11 8 5 2 3 4 3 2 6
16 16 14 13 12 8 9 10 9 8 10 9 6 10 7 3 2 4 6 3 2 8
15 16 15 13 12 10 9 7 7 9 10 10 7 10 6 4 3 4 6 6 8 7
15 15 14 12 12 9 9 10 8 9 10 13 9 10 7 4 3 5 4 5 6 10
13 13 11 11 7 9 8 8 8 9 9 10 10 8 10 7 4 3 2 3 3 2
Wind_Direction
158 158 158 163 159 157 156 142 127 119 118 118 116 104 104 98 100 90 82 78 56 36
156 156 163 164 165 159 135 129 128 125 123 118 116 111 116 100 83 87 72 87 63 64
165 155 163 160 127 132 130 129 129 127 122 124 119 98 111 106 91 92 72 74 63 50
161 158 125 127 132 130 129 133 135 133 132 130 121 112 104 117 101 93 82 56 53 51
151 129 130 132 130 131 132 135 136 138 132 128 117 115 109 105 104 102 94 77 54 48
142 137 134 129 130 132 132 132 138 133 127 125 125 125 134 140 129 130 131 120 98 100
137 133 130 131 131 131 132 133 136 125 121 124 125 104 93 125 124 113 157 163 191 164
136 128 127 128 127 130 133 131 125 122 120 102 98 91 83 61 54 25 155 208 201 154
136 134 131 130 132 133 128 126 126 129 123 112 107 106 87 70 41 3 354 103 33 23
137 134 137 135 138 135 136 133 136 135 122 118 123 130 115 78 36 339 312 156 153 112
140 140 141 137 138 135 142 144 147 133 134 131 136 136 119 80 11 313 289 307 84 114
144 143 145 147 150 150 148 140 147 135 141 135 136 138 127 90 36 31 65 62 87 101
145 150 148 152 158 155 152 153 151 139 146 147 141 146 138 114 90 78 66 94 93 98
146 148 147 149 147 152 149 144 145 124 144 143 150 167 156 134 112 106 76 88 136 91